Weather History for Point Pleasant, WV

Change the Weather History Date:

Thursday, August 29, 2013

  Actual Average (KHTS) Record (KHTS)
Temperature  
Mean Temperature 79 °F 73 °F  
Max Temperature 89 °F 84 °F 102 °F (1948)
Min Temperature 69 °F 63 °F 43 °F (1986)
Degree Days  
Heating Degree Days 0 0  
Month to date heating degree days 0  
Since 1 June heating degree days 12  
Since 1 July heating degree days 0  
Cooling Degree Days 14 9  
Month to date cooling degree days 293  
Year to date cooling degree days 963  
Since 1 June cooling degree days 850  
Growing Degree Days 29 (Base 50)    
Moisture  
Dew Point 71 °F    
Average Humidity 83    
Maximum Humidity 100    
Minimum Humidity 52    
Precipitation  
Precipitation 0.00 in 0.11 in 1.88 in (2004)
Month to date precipitation 3.52  
Year to date precipitation 30.03  
Snow  
Snow 0.00 in - - ()
Month to date snowfall  
Since 1 September snowfall  
Snow Depth -    
Sea Level Pressure  
Sea Level Pressure 30.01 in    
Wind  
Wind Speed 0 mph (NW)    
Max Wind Speed 5 mph    
Max Gust Speed -    
Visibility 5 miles    
Events      
T = Trace of Precipitation, MM = Missing Value Source: NWS Daily Summary

Daily Weather History Graph

Daily Weather History Graph

Search for Another Location

Airport:

Trip Planner

Search our weather history database for the weather conditions in past years. The results will help you decide how hot, cold, wet, or windy it might be!

Date:

Astronomy

Aug. 29, 2013 Rise Set
Actual Time 6:54 AM EDT 8:02 PM EDT
Civil Twilight 6:27 AM EDT 8:30 PM EDT
Nautical Twilight 5:54 AM EDT 9:03 PM EDT
Astronomical Twilight 5:20 AM EDT 9:37 PM EDT
Moon 12:47 AM EDT (8/29) 3:29 PM EDT (8/29)
Length of Visible Light 14h 03m
Length of Day
13h 08m
Last Quarter, 38% of the Moon is Illuminated
Aug 29
Last Quarter
Sep 5
New
Sep 12
First Quarter
Sep 19
Full
Sep 26
Last Quarter

Hourly Weather History & Observations

Time (EDT) Temp. Heat Index Dew Point Humidity Pressure Visibility Wind Dir Wind Speed Gust Speed Precip Events Conditions
12:15 AM 71.6 °F - 71.6 °F 100% 29.97 in 1.0 mi Calm Calm - N/A   Mist
12:35 AM 71.6 °F - 69.8 °F 94% 29.96 in 1.2 mi Calm Calm - N/A   Mist
12:55 AM 71.6 °F - 69.8 °F 94% 29.96 in 7.0 mi Calm Calm - N/A   Clear
1:15 AM 71.6 °F - 69.8 °F 94% 29.96 in 5.0 mi Calm Calm - N/A   Clear
1:35 AM 71.6 °F - 69.8 °F 94% 29.96 in 1.2 mi Calm Calm - N/A   Mist
1:55 AM 71.6 °F - 69.8 °F 94% 29.96 in 5.0 mi Calm Calm - N/A   Clear
2:15 AM 71.6 °F - 69.8 °F 94% 29.96 in 4.0 mi Calm Calm - N/A   Clear
2:35 AM 71.6 °F - 69.8 °F 94% 29.96 in 3.0 mi Calm Calm - N/A   Clear
2:55 AM 71.6 °F - 69.8 °F 94% 29.96 in 2.0 mi Calm Calm - N/A   Clear
3:15 AM 71.6 °F - 69.8 °F 94% 29.96 in 1.8 mi Calm Calm - N/A   Mist
3:35 AM 69.8 °F - 69.8 °F 100% 29.97 in 2.0 mi Calm Calm - N/A   Clear
3:55 AM 71.6 °F - 69.8 °F 94% 29.97 in 4.0 mi Calm Calm - N/A   Clear
4:15 AM 69.8 °F - 69.8 °F 100% 29.97 in 4.0 mi Calm Calm - N/A   Clear
4:35 AM 69.8 °F - 68.0 °F 94% 29.98 in 0.8 mi Calm Calm - N/A   Scattered Clouds
4:55 AM 69.8 °F - 68.0 °F 94% 29.97 in 1.0 mi Calm Calm - N/A   Mostly Cloudy
5:15 AM 69.8 °F - 68.0 °F 94% 29.98 in 1.2 mi Calm Calm - N/A   Mostly Cloudy
5:35 AM 69.8 °F - 68.0 °F 94% 29.99 in 2.5 mi Calm Calm - N/A   Overcast
5:55 AM 69.8 °F - 69.8 °F 100% 29.99 in 3.0 mi Calm Calm - N/A   Overcast
6:15 AM 69.8 °F - 69.8 °F 100% 29.99 in 3.0 mi Calm Calm - N/A   Overcast
6:35 AM 69.8 °F - 69.8 °F 100% 30.00 in 3.0 mi Calm Calm - N/A   Overcast
6:55 AM 71.6 °F - 69.8 °F 94% 30.01 in 3.0 mi Calm Calm - N/A   Overcast
7:15 AM 71.6 °F - 69.8 °F 94% 30.01 in 2.5 mi Calm Calm - N/A   Overcast
7:35 AM 71.6 °F - 69.8 °F 94% 30.02 in 2.5 mi Calm Calm - N/A   Overcast
7:55 AM 71.6 °F - 69.8 °F 94% 30.02 in 3.0 mi Calm Calm - N/A   Overcast
8:15 AM 71.6 °F - 69.8 °F 94% 30.03 in 2.5 mi Calm Calm - N/A   Overcast
8:35 AM 71.6 °F - 69.8 °F 94% 30.03 in 3.0 mi Calm Calm - N/A   Overcast
8:55 AM 71.6 °F - 71.6 °F 100% 30.04 in 3.0 mi Calm Calm - N/A   Overcast
9:15 AM 73.4 °F - 71.6 °F 94% 30.03 in 3.0 mi Calm Calm - N/A   Overcast
9:35 AM 73.4 °F - 71.6 °F 94% 30.04 in 4.0 mi Calm Calm - N/A   Overcast
9:55 AM 73.4 °F - 71.6 °F 94% 30.04 in 4.0 mi Calm Calm - N/A   Overcast
10:15 AM 77.0 °F - 71.6 °F 83% 30.04 in 5.0 mi Calm Calm - N/A   Haze
10:35 AM 78.8 °F - 71.6 °F 78% 30.05 in 7.0 mi Calm Calm - N/A   Overcast
10:55 AM 80.6 °F 84.6 °F 71.6 °F 74% 30.05 in 7.0 mi NNE 3.5 mph - N/A   Mostly Cloudy
11:15 AM 80.6 °F 84.6 °F 71.6 °F 74% 30.04 in 7.0 mi Calm Calm - N/A   Mostly Cloudy
11:35 AM 82.4 °F 87.2 °F 71.6 °F 70% 30.04 in 7.0 mi Calm Calm - N/A   Mostly Cloudy
11:55 AM 82.4 °F 87.2 °F 71.6 °F 70% 30.05 in 7.0 mi Calm Calm - N/A   Mostly Cloudy
12:15 PM 86.0 °F 91.8 °F 71.6 °F 62% 30.04 in 5.0 mi Calm Calm - N/A   Haze
12:35 PM 84.2 °F 89.6 °F 71.6 °F 66% 30.04 in 7.0 mi Calm Calm - N/A   Mostly Cloudy
1:15 PM 87.8 °F 92.6 °F 69.8 °F 55% 30.04 in 10.0 mi Calm Calm - N/A   Scattered Clouds
1:55 PM 87.8 °F 93.8 °F 71.6 °F 58% 30.03 in 7.0 mi Calm Calm - N/A   Mostly Cloudy
2:15 PM 87.8 °F 93.8 °F 71.6 °F 58% 30.03 in 7.0 mi Calm Calm - N/A   Scattered Clouds
2:35 PM 89.6 °F 96.2 °F 71.6 °F 55% 30.03 in 7.0 mi WNW 4.6 mph - N/A   Scattered Clouds
2:55 PM 89.6 °F 96.2 °F 71.6 °F 55% 30.02 in 10.0 mi WNW 4.6 mph - N/A   Scattered Clouds
3:15 PM 89.6 °F 96.2 °F 71.6 °F 55% 30.02 in 7.0 mi Calm Calm - N/A   Scattered Clouds
3:35 PM 89.6 °F 94.7 °F 69.8 °F 52% 30.01 in 10.0 mi WNW 3.5 mph - N/A   Clear
3:55 PM 89.6 °F 94.7 °F 69.8 °F 52% 30.01 in 10.0 mi Calm Calm - N/A   Scattered Clouds
4:15 PM 89.6 °F 94.7 °F 69.8 °F 52% 30.00 in 10.0 mi Calm Calm - N/A   Scattered Clouds
4:35 PM 89.6 °F 96.2 °F 71.6 °F 55% 30.00 in 10.0 mi North 3.5 mph - N/A   Clear
4:55 PM 87.8 °F 93.8 °F 71.6 °F 58% 30.00 in 10.0 mi Calm Calm - N/A   Clear
5:15 PM 87.8 °F 92.6 °F 69.8 °F 55% 30.00 in 7.0 mi Calm Calm - N/A   Clear
5:35 PM 86.0 °F 90.4 °F 69.8 °F 58% 30.00 in 10.0 mi Calm Calm - N/A   Scattered Clouds
5:55 PM 82.4 °F 88.2 °F 73.4 °F 74% 30.01 in 7.0 mi Calm Calm - N/A   Scattered Clouds
6:15 PM 82.4 °F 88.2 °F 73.4 °F 74% 30.01 in 7.0 mi Calm Calm - N/A   Scattered Clouds
6:35 PM 82.4 °F 88.2 °F 73.4 °F 74% 30.01 in 10.0 mi Calm Calm - N/A   Scattered Clouds
6:55 PM 80.6 °F 85.4 °F 73.4 °F 79% 30.01 in 7.0 mi Calm Calm - N/A   Clear
7:15 PM 80.6 °F 85.4 °F 73.4 °F 79% 30.00 in 7.0 mi Calm Calm - N/A   Scattered Clouds
7:35 PM 78.8 °F - 73.4 °F 83% 30.01 in 7.0 mi Calm Calm - N/A   Mostly Cloudy
7:55 PM 77.0 °F - 71.6 °F 83% 30.01 in 5.0 mi Calm Calm - N/A   Haze
8:15 PM 77.0 °F - 71.6 °F 83% 30.01 in 5.0 mi Calm Calm - N/A   Clear
8:35 PM 75.2 °F - 71.6 °F 89% 30.01 in 5.0 mi Calm Calm - N/A   Scattered Clouds
8:55 PM 75.2 °F - 71.6 °F 89% 30.02 in 5.0 mi Calm Calm - N/A   Clear
9:15 PM 73.4 °F - 71.6 °F 94% 30.02 in 5.0 mi Calm Calm - N/A   Clear
9:35 PM 73.4 °F - 71.6 °F 94% 30.03 in 4.0 mi Calm Calm - N/A   Clear
9:55 PM 73.4 °F - 71.6 °F 94% 30.03 in 4.0 mi Calm Calm - N/A   Clear
10:15 PM 73.4 °F - 71.6 °F 94% 30.03 in 4.0 mi Calm Calm - N/A   Scattered Clouds
10:35 PM 73.4 °F - 71.6 °F 94% 30.03 in 4.0 mi Calm Calm - N/A   Scattered Clouds
10:55 PM 73.4 °F - 71.6 °F 94% 30.03 in 3.0 mi Calm Calm - N/A   Scattered Clouds
11:15 PM 71.6 °F - 69.8 °F 94% 30.03 in 2.5 mi Calm Calm - N/A   Clear
11:35 PM 71.6 °F - 69.8 °F 94% 30.02 in 3.0 mi Calm Calm - N/A   Clear
11:55 PM 71.6 °F - 69.8 °F 94% 30.02 in 3.0 mi Calm Calm - N/A   Clear